Regional Weather Roundup
Issued by NWS Kansas City/Pleasant Hill, MO

Home | Current Version | Previous Version | Graphics & Text | Print | Product List | Glossary Off
Versions: 1 2 3 4 5 6 7 8 9 10 11 12 13 14 15 16 17 18 19 20 21 22 23 24 25 26 27 28 29 30 31 32 33 34 35 36 37 38 39 40 41 42 43 44 45 46 47 48 49 50

000
ASUS43 KEAX 272210
RWREAX

WEATHER ROUNDUP FOR EASTERN KANSAS AND NORTHWEST MISSOURI
NATIONAL WEATHER SERVICE KANSAS CITY/PLEASANT HILL MO
400 PM CST TUE JAN 27 2015

KSZ040-057-103>105-MOZ028-029-037-043-272300-
...KANSAS CITY METROPOLITAN AREA...

CITY           SKY/WX    TMP DP  RH WIND       PRES   REMARKS
K.C. INTL      SUNNY     55  30  38 SE8       30.08F
K.C. DOWNTOWN  SUNNY     58  30  34 SE8       30.08F
LEES SUMMIT    SUNNY     56  31  38 S7        30.10S
OLATHE - IXD   SUNNY     57  32  38 SE12      30.08F
OLATHE - OJC   SUNNY     57  33  40 S9        30.07F
LAWRENCE       SUNNY     58  31  35 SE12      30.07F

$$

MOZ001>008-011>017-020>025-030>033-038>040-044>046-053-054-272300-
...NORTHERN AND CENTRAL MISSOURI...

CITY           SKY/WX    TMP DP  RH WIND       PRES   REMARKS
ST. JOSEPH     SUNNY     55  31  39 SE10      30.08F
MOSBY          CLEAR     54  32  43 E8        30.10S
WARRENSBURG    SUNNY     54  32  43 CALM      30.12R
WHITEMAN AFB   SUNNY     54  33  45 SE5       30.12R
CLINTON        SUNNY     55  34  44 CALM      30.13R HAZE
SEDALIA        SUNNY     53  32  44 E5        30.14R
WARSAW         NOT AVBL
MARSHALL       SUNNY     52  36  54 CALM      30.15R
CHILLICOTHE      N/A     50  33  52 E7        30.15R
MOBERLY        SUNNY     48  32  53 CALM      30.15S
KIRKSVILLE     SUNNY     45  32  60 E3        30.15S

$$

MOZ041-047>049-056>058-063>065-088>090-097-272300-
...EASTERN AND SOUTHERN MISSOURI...

CITY           SKY/WX    TMP DP  RH WIND       PRES   REMARKS
ST. LOUIS INTL NOT AVBL
SPIRIT OF STL  MOSUNNY   46  31  55 NE7       30.17R
COLUMBIA       SUNNY     51  33  50 CALM      30.14R
JEFFERSON CITY SUNNY     50  32  50 W3        30.14R
MEXICO         SUNNY     48  39  71 NE6       30.15S
HANNIBAL       SUNNY     45  30  57 NE6       30.17S
ROLLA          SUNNY     50  31  48 CALM      30.12R
LEBANON        SUNNY     55  27  33 NW3       30.12R
OSAGE BEACH    SUNNY     54  30  40 CALM      30.13S
SPRINGFIELD    SUNNY     58  25  28 CALM      30.11R
BRANSON        SUNNY     63  28  27 CALM      30.12S
NEVADA         SUNNY     59  28  31 CALM      30.12S
JOPLIN         SUNNY     64  27  24 NE3       30.10F
WEST PLAINS    SUNNY     57  27  31 CALM      30.11S

$$

IAZ060-094-KSZ022-034>040-054-083-096-NEZ052-066-093-272300-
...KANSAS...SOUTHEAST NEBRASKA AND IOWA...

CITY           SKY/WX    TMP DP  RH WIND       PRES   REMARKS
TOPEKA         SUNNY     60  32  34 SE13      30.05F
MANHATTAN      SUNNY     65  35  33 SE14      30.00F
EMPORIA        SUNNY     62  34  35 SE14      30.03F
CHANUTE        SUNNY     63  34  33 S10       30.09S
WICHITA        MOSUNNY   72  36  26 S14       30.01F
OMAHA          MOSUNNY   53  32  44 SE14      30.04F
LINCOLN        SUNNY     59  32  36 SE10      30.01F
FALLS CITY     SUNNY     56  31  38 SE9       30.05S
LAMONI         SUNNY     48  30  49 SE7       30.10F
DES MOINES     MOSUNNY   46  30  53 SE8       30.13S

$$



USA.gov is the U.S. government's official web portal to all federal, state and local government web resources and services.